BAW818 EGLL-EKCH

Flight info

Callsign BAW818
Flight time 1h 23m
Altitude 39000
Route BPK Q295 SOMVA DCT MAVAS DCT ROCZO DCT DOSUR P729 TUDLO
Aircraft A320/M-SDE3FGHIRWY/LB1

Departure

Time 2026-05-07 16:16
Airport London Heathrow Airport (EGLL)

Arrival

Time 2026-05-07 17:39
Airport Copenhagen Kastrup Airport (EKCH)
Time Latitude Longitude Altitude Speed Heading
2026-05-07 15:32 51.47134 -0.48610 88 ft 0 kts 269°
2026-05-07 16:04 51.47134 -0.48600 89 ft 4 kts 269°
2026-05-07 16:04 51.47134 -0.48557 89 ft 4 kts 269°
2026-05-07 16:04 51.47134 -0.48522 89 ft 4 kts 267°
2026-05-07 16:05 51.47140 -0.48485 90 ft 4 kts 223°
2026-05-07 16:05 51.47160 -0.48472 89 ft 4 kts 179°
2026-05-07 16:05 51.47173 -0.48472 87 ft 0 kts 179°
2026-05-07 16:08 51.47163 -0.48472 89 ft 5 kts 179°
2026-05-07 16:09 51.47117 -0.48474 85 ft 8 kts 180°
2026-05-07 16:09 51.47051 -0.48474 85 ft 11 kts 179°
2026-05-07 16:09 51.46964 -0.48473 85 ft 14 kts 179°
2026-05-07 16:09 51.46860 -0.48471 85 ft 12 kts 180°
2026-05-07 16:10 51.46769 -0.48471 87 ft 14 kts 179°
2026-05-07 16:10 51.46663 -0.48469 88 ft 12 kts 179°
2026-05-07 16:10 51.46600 -0.48469 89 ft 0 kts 180°
2026-05-07 16:14 51.46595 -0.48469 89 ft 4 kts 180°
2026-05-07 16:14 51.46541 -0.48469 89 ft 11 kts 180°
2026-05-07 16:14 51.46475 -0.48441 89 ft 7 kts 95°
2026-05-07 16:14 51.46478 -0.48385 89 ft 0 kts 89°
2026-05-07 16:15 51.46479 -0.48385 89 ft 0 kts 89°
2026-05-07 16:15 51.46480 -0.48198 87 ft 51 kts 89°
2026-05-07 16:15 51.46482 -0.47232 84 ft 117 kts 89°
2026-05-07 16:15 51.46488 -0.45684 146 ft 158 kts 89°
2026-05-07 16:16 51.46501 -0.43937 849 ft 157 kts 89°
2026-05-07 16:16 51.46538 -0.42147 1508 ft 164 kts 84°
2026-05-07 16:16 51.46975 -0.40340 1848 ft 188 kts 54°
2026-05-07 16:16 51.47851 -0.38658 2180 ft 211 kts 50°
2026-05-07 16:17 51.48857 -0.36742 2601 ft 237 kts 50°
2026-05-07 16:17 51.49971 -0.34611 3184 ft 259 kts 50°
2026-05-07 16:17 51.51142 -0.32360 4099 ft 265 kts 50°
2026-05-07 16:17 51.52245 -0.29964 5121 ft 269 kts 63°
2026-05-07 16:18 51.52937 -0.27138 5771 ft 274 kts 71°
2026-05-07 16:18 51.53600 -0.24272 5966 ft 274 kts 64°
2026-05-07 16:18 51.54681 -0.21769 6004 ft 273 kts 45°
2026-05-07 16:18 51.56208 -0.19975 6007 ft 273 kts 26°
2026-05-07 16:19 51.57954 -0.18769 6030 ft 273 kts 22°
2026-05-07 16:19 51.59743 -0.17709 6032 ft 274 kts 15°
2026-05-07 16:19 51.61581 -0.16868 6034 ft 275 kts 15°
2026-05-07 16:19 51.63396 -0.16032 6035 ft 275 kts 15°
2026-05-07 16:20 51.65232 -0.15185 6036 ft 275 kts 15°
2026-05-07 16:20 51.67095 -0.14320 6037 ft 275 kts 15°
2026-05-07 16:20 51.68911 -0.13479 6059 ft 276 kts 15°
2026-05-07 16:20 51.70767 -0.12620 6833 ft 278 kts 15°
2026-05-07 16:21 51.72593 -0.11575 7781 ft 282 kts 28°
2026-05-07 16:21 51.74143 -0.09619 8654 ft 286 kts 50°
2026-05-07 16:21 51.75170 -0.06863 9523 ft 290 kts 72°
2026-05-07 16:21 51.75584 -0.03672 10301 ft 296 kts 84°
2026-05-07 16:22 51.75859 -0.00235 10586 ft 320 kts 84°
2026-05-07 16:22 51.76151 0.03401 11112 ft 332 kts 84°
2026-05-07 16:22 51.76353 0.05873 11598 ft 336 kts 84°
2026-05-07 16:22 51.76662 0.09638 12371 ft 340 kts 84°
2026-05-07 16:23 51.76975 0.13435 13161 ft 343 kts 84°
2026-05-07 16:23 51.77395 0.18536 14164 ft 348 kts 84°
2026-05-07 16:23 51.78031 0.26269 15468 ft 356 kts 84°
2026-05-07 16:24 51.78355 0.30262 16097 ft 361 kts 84°
2026-05-07 16:24 51.78681 0.34317 16732 ft 366 kts 84°
2026-05-07 16:24 51.79009 0.38420 17369 ft 370 kts 84°
2026-05-07 16:24 51.79338 0.42564 18007 ft 375 kts 84°
2026-05-07 16:25 51.79671 0.46771 18609 ft 380 kts 83°
2026-05-07 16:25 51.80007 0.51033 19188 ft 384 kts 84°
2026-05-07 16:25 51.80342 0.55332 19772 ft 388 kts 84°
2026-05-07 16:25 51.80676 0.59613 20391 ft 391 kts 83°
2026-05-07 16:26 51.81078 0.63977 21005 ft 395 kts 78°
2026-05-07 16:26 51.81898 0.68228 21611 ft 398 kts 68°
2026-05-07 16:26 51.82980 0.72369 22200 ft 401 kts 67°
2026-05-07 16:26 51.83702 0.75133 22583 ft 404 kts 67°
2026-05-07 16:27 51.85167 0.80777 23364 ft 408 kts 68°
2026-05-07 16:27 51.85897 0.83602 23725 ft 411 kts 68°
2026-05-07 16:27 51.87002 0.87880 24197 ft 414 kts 68°
2026-05-07 16:27 51.88479 0.93617 24828 ft 418 kts 68°
2026-05-07 16:28 51.89232 0.96555 25152 ft 420 kts 68°
2026-05-07 16:28 51.90354 1.00941 25626 ft 422 kts 68°
2026-05-07 16:28 51.91481 1.05348 26101 ft 425 kts 68°
2026-05-07 16:28 51.92613 1.09782 26548 ft 427 kts 68°
2026-05-07 16:29 51.93749 1.14248 26988 ft 430 kts 68°
2026-05-07 16:29 51.94891 1.18733 27424 ft 432 kts 68°
2026-05-07 16:29 51.96031 1.23190 27839 ft 435 kts 68°
2026-05-07 16:29 51.97189 1.27726 28268 ft 437 kts 68°
2026-05-07 16:30 51.98349 1.32305 28687 ft 440 kts 68°
2026-05-07 16:30 51.99509 1.36908 29102 ft 442 kts 68°
2026-05-07 16:30 52.00677 1.41553 29507 ft 445 kts 68°
2026-05-07 16:30 52.01845 1.46213 29911 ft 447 kts 68°
2026-05-07 16:31 52.03019 1.50908 30287 ft 450 kts 68°
2026-05-07 16:31 52.04196 1.55632 30649 ft 451 kts 69°
2026-05-07 16:31 52.05371 1.60352 31058 ft 451 kts 69°
2026-05-07 16:31 52.06554 1.65094 31424 ft 453 kts 69°
2026-05-07 16:32 52.07727 1.69798 31733 ft 455 kts 69°
2026-05-07 16:32 52.08913 1.74570 32123 ft 455 kts 69°
2026-05-07 16:32 52.10098 1.79355 32582 ft 455 kts 69°
2026-05-07 16:32 52.11278 1.84124 33040 ft 453 kts 69°
2026-05-07 16:33 52.12456 1.88897 33486 ft 453 kts 69°
2026-05-07 16:33 52.13625 1.93655 33959 ft 452 kts 69°
2026-05-07 16:33 52.14763 1.98306 34336 ft 452 kts 69°
2026-05-07 16:33 52.15926 2.03069 34693 ft 452 kts 69°
2026-05-07 16:34 52.17090 2.07834 35039 ft 452 kts 69°
2026-05-07 16:34 52.18239 2.12541 35351 ft 453 kts 69°
2026-05-07 16:34 52.19401 2.17312 35675 ft 453 kts 69°
2026-05-07 16:34 52.20563 2.22102 35981 ft 454 kts 69°
2026-05-07 16:35 52.21723 2.26901 36287 ft 454 kts 69°
2026-05-07 16:35 52.22885 2.31709 36580 ft 455 kts 69°
2026-05-07 16:35 52.24051 2.36523 36883 ft 456 kts 69°
2026-05-07 16:35 52.25215 2.41333 37173 ft 456 kts 69°
2026-05-07 16:36 52.26376 2.46159 37465 ft 456 kts 69°
2026-05-07 16:36 52.27532 2.50991 37778 ft 456 kts 69°
2026-05-07 16:36 52.28680 2.55807 38068 ft 456 kts 69°
2026-05-07 16:36 52.29819 2.60588 38337 ft 457 kts 69°
2026-05-07 16:37 52.30929 2.65516 38595 ft 457 kts 75°
2026-05-07 16:37 52.31806 2.70446 38819 ft 457 kts 75°
2026-05-07 16:37 52.32687 2.75448 39003 ft 458 kts 75°
2026-05-07 16:38 52.34447 2.85493 39103 ft 460 kts 75°
2026-05-07 16:38 52.36209 2.95553 39102 ft 460 kts 75°
2026-05-07 16:39 52.37956 3.05633 39106 ft 460 kts 75°
2026-05-07 16:39 52.39853 3.15634 39104 ft 460 kts 66°
2026-05-07 16:40 52.43117 3.24643 39103 ft 461 kts 56°
2026-05-07 16:40 52.46674 3.33400 39106 ft 461 kts 57°
2026-05-07 16:41 52.50205 3.42191 39111 ft 462 kts 57°
2026-05-07 16:41 52.53736 3.50999 39112 ft 462 kts 57°
2026-05-07 16:42 52.57250 3.59768 39120 ft 462 kts 57°
2026-05-07 16:42 52.60801 3.68662 39124 ft 462 kts 57°
2026-05-07 16:43 52.64297 3.77448 39125 ft 462 kts 57°
2026-05-07 16:43 52.67810 3.86304 39125 ft 461 kts 57°
2026-05-07 16:44 52.71308 3.95186 39130 ft 461 kts 57°
2026-05-07 16:44 52.74797 4.04063 39117 ft 461 kts 57°
2026-05-07 16:45 52.78283 4.12939 39117 ft 460 kts 57°
2026-05-07 16:45 52.81738 4.21768 39119 ft 460 kts 57°
2026-05-07 16:46 52.85208 4.30667 39119 ft 460 kts 58°
2026-05-07 16:46 52.88667 4.39584 39123 ft 460 kts 58°
2026-05-07 16:47 52.92115 4.48520 39124 ft 460 kts 58°
2026-05-07 16:47 52.95565 4.57475 39129 ft 460 kts 58°
2026-05-07 16:48 52.99005 4.66439 39132 ft 460 kts 58°
2026-05-07 16:48 53.02434 4.75398 39132 ft 460 kts 58°
2026-05-07 16:49 53.05839 4.84317 39131 ft 460 kts 58°
2026-05-07 16:49 53.09262 4.93311 39130 ft 460 kts 58°
2026-05-07 16:50 53.12671 5.02310 39131 ft 459 kts 58°
2026-05-07 16:50 53.16068 5.11334 39130 ft 459 kts 58°
2026-05-07 16:51 53.19459 5.20370 39131 ft 459 kts 58°
2026-05-07 16:51 53.22828 5.29365 39129 ft 459 kts 58°
2026-05-07 16:52 53.26210 5.38426 39130 ft 459 kts 58°
2026-05-07 16:52 53.29581 5.47501 39132 ft 459 kts 59°
2026-05-07 16:53 53.32945 5.56587 39137 ft 459 kts 59°
2026-05-07 16:53 53.36285 5.65636 39133 ft 459 kts 59°
2026-05-07 16:54 53.39642 5.74756 39126 ft 460 kts 59°
2026-05-07 16:54 53.42995 5.83898 39126 ft 460 kts 59°
2026-05-07 16:55 53.46332 5.93043 39126 ft 460 kts 59°
2026-05-07 16:55 53.49668 6.02212 39121 ft 460 kts 59°
2026-05-07 16:56 53.53002 6.11402 39123 ft 460 kts 59°
2026-05-07 16:56 53.57987 6.25219 39120 ft 460 kts 59°
2026-05-07 16:57 53.61295 6.34450 39125 ft 460 kts 59°
2026-05-07 16:57 53.64586 6.43627 39126 ft 460 kts 59°
2026-05-07 16:58 53.67886 6.52876 39127 ft 460 kts 59°
2026-05-07 16:58 53.71179 6.62137 39128 ft 460 kts 59°
2026-05-07 16:59 53.74452 6.71404 39124 ft 459 kts 59°
2026-05-07 16:59 53.77718 6.80686 39125 ft 459 kts 59°
2026-05-07 17:00 53.80985 6.89993 39129 ft 460 kts 59°
2026-05-07 17:00 53.84243 6.99317 39129 ft 459 kts 60°
2026-05-07 17:01 53.87491 7.08639 39131 ft 459 kts 60°
2026-05-07 17:01 53.90740 7.17968 39127 ft 459 kts 60°
2026-05-07 17:02 53.93949 7.27250 39133 ft 458 kts 60°
2026-05-07 17:02 53.97167 7.36599 39132 ft 458 kts 60°
2026-05-07 17:03 54.00382 7.45956 39123 ft 459 kts 60°
2026-05-07 17:03 54.03598 7.55334 39131 ft 459 kts 60°
2026-05-07 17:04 54.06809 7.64748 39132 ft 459 kts 60°
2026-05-07 17:04 54.09979 7.74107 39137 ft 459 kts 60°
2026-05-07 17:05 54.13163 7.83540 39137 ft 459 kts 60°
2026-05-07 17:05 54.16571 7.92725 39136 ft 458 kts 50°
2026-05-07 17:06 54.20935 8.00656 39131 ft 459 kts 46°
2026-05-07 17:06 54.25353 8.08550 39135 ft 459 kts 46°
2026-05-07 17:07 54.29768 8.16473 39134 ft 459 kts 46°
2026-05-07 17:07 54.34148 8.24340 39136 ft 459 kts 46°
2026-05-07 17:08 54.38547 8.32287 39137 ft 459 kts 46°
2026-05-07 17:08 54.42946 8.40261 39134 ft 459 kts 46°
2026-05-07 17:09 54.47341 8.48239 39141 ft 459 kts 46°
2026-05-07 17:09 54.51726 8.56222 39141 ft 459 kts 46°
2026-05-07 17:10 54.56100 8.64229 39132 ft 458 kts 46°
2026-05-07 17:10 54.60475 8.72245 39133 ft 458 kts 46°
2026-05-07 17:11 54.64806 8.80232 39133 ft 458 kts 47°
2026-05-07 17:11 54.69160 8.88289 39141 ft 458 kts 47°
2026-05-07 17:12 54.72807 8.95042 39137 ft 458 kts 47°
2026-05-07 17:12 54.77128 9.03068 39136 ft 458 kts 47°
2026-05-07 17:13 54.81469 9.11163 39138 ft 458 kts 47°
2026-05-07 17:13 54.85801 9.19282 39137 ft 458 kts 47°
2026-05-07 17:14 54.90054 9.27475 38549 ft 459 kts 49°
2026-05-07 17:14 54.92168 9.31659 36995 ft 465 kts 49°
2026-05-07 17:14 54.94288 9.35901 35764 ft 461 kts 49°
2026-05-07 17:15 54.96362 9.40062 35086 ft 445 kts 49°
2026-05-07 17:15 54.98330 9.44000 34852 ft 431 kts 49°
2026-05-07 17:15 55.00282 9.47891 34565 ft 420 kts 48°
2026-05-07 17:15 55.02179 9.51661 34089 ft 406 kts 48°
2026-05-07 17:16 55.04013 9.55303 33591 ft 392 kts 48°
2026-05-07 17:16 55.05779 9.58818 33158 ft 378 kts 48°
2026-05-07 17:16 55.07501 9.62251 32716 ft 377 kts 48°
2026-05-07 17:16 55.09179 9.65765 32269 ft 377 kts 54°
2026-05-07 17:17 55.10570 9.69639 31826 ft 377 kts 62°
2026-05-07 17:17 55.11626 9.73847 31398 ft 379 kts 70°
2026-05-07 17:17 55.12419 9.78230 30971 ft 378 kts 72°
2026-05-07 17:17 55.13203 9.82621 30525 ft 378 kts 72°
2026-05-07 17:18 55.13992 9.87024 30078 ft 379 kts 72°
2026-05-07 17:18 55.14777 9.91414 29620 ft 378 kts 72°
2026-05-07 17:18 55.15557 9.95797 29208 ft 377 kts 72°
2026-05-07 17:18 55.16334 10.00164 28798 ft 375 kts 72°
2026-05-07 17:19 55.17101 10.04491 28393 ft 373 kts 72°
2026-05-07 17:19 55.17871 10.08845 27987 ft 372 kts 72°
2026-05-07 17:19 55.18622 10.13097 27605 ft 369 kts 72°
2026-05-07 17:19 55.19376 10.17381 27224 ft 367 kts 72°
2026-05-07 17:20 55.20124 10.21631 26844 ft 364 kts 72°
2026-05-07 17:20 55.20862 10.25857 26471 ft 362 kts 72°
2026-05-07 17:20 55.21594 10.30059 26101 ft 359 kts 72°
2026-05-07 17:20 55.22319 10.34232 25720 ft 357 kts 72°
2026-05-07 17:21 55.23035 10.38374 25338 ft 355 kts 72°
2026-05-07 17:21 55.23748 10.42504 24944 ft 353 kts 72°
2026-05-07 17:21 55.24461 10.46620 24548 ft 352 kts 72°
2026-05-07 17:21 55.25172 10.50722 24153 ft 351 kts 72°
2026-05-07 17:22 55.25877 10.54822 23737 ft 351 kts 72°
2026-05-07 17:22 55.26582 10.58929 23269 ft 350 kts 72°
2026-05-07 17:22 55.27283 10.63008 22843 ft 348 kts 72°
2026-05-07 17:22 55.27970 10.67011 22426 ft 347 kts 72°
2026-05-07 17:23 55.28665 10.71049 22014 ft 345 kts 72°
2026-05-07 17:23 55.29358 10.75083 21592 ft 344 kts 72°
2026-05-07 17:23 55.30044 10.79095 21169 ft 343 kts 72°
2026-05-07 17:23 55.30729 10.83099 20760 ft 342 kts 72°
2026-05-07 17:24 55.31411 10.87090 20328 ft 341 kts 72°
2026-05-07 17:24 55.32091 10.91077 19904 ft 341 kts 72°
2026-05-07 17:24 55.32767 10.95058 19479 ft 340 kts 73°
2026-05-07 17:24 55.33440 10.99042 19057 ft 340 kts 73°
2026-05-07 17:25 55.34108 11.03030 18635 ft 340 kts 73°
2026-05-07 17:25 55.34604 11.07133 17794 ft 350 kts 81°
2026-05-07 17:25 55.34934 11.11341 17458 ft 344 kts 82°
2026-05-07 17:25 55.35239 11.15491 17085 ft 340 kts 82°
2026-05-07 17:26 55.35529 11.19530 16729 ft 336 kts 82°
2026-05-07 17:26 55.35820 11.23589 16417 ft 333 kts 82°
2026-05-07 17:26 55.36112 11.27634 16110 ft 331 kts 82°
2026-05-07 17:26 55.36401 11.31638 15818 ft 329 kts 82°
2026-05-07 17:27 55.36686 11.35628 15530 ft 328 kts 82°
2026-05-07 17:27 55.36972 11.39604 15228 ft 326 kts 82°
2026-05-07 17:27 55.37256 11.43546 14926 ft 324 kts 82°
2026-05-07 17:27 55.37539 11.47472 14634 ft 322 kts 82°
2026-05-07 17:28 55.37821 11.51377 14344 ft 321 kts 82°
2026-05-07 17:28 55.38093 11.55183 14060 ft 318 kts 82°
2026-05-07 17:28 55.38364 11.59028 13749 ft 314 kts 82°
2026-05-07 17:28 55.38628 11.62794 13366 ft 311 kts 82°
2026-05-07 17:29 55.38890 11.66574 12938 ft 310 kts 83°
2026-05-07 17:29 55.39150 11.70336 12514 ft 309 kts 83°
2026-05-07 17:29 55.39409 11.74077 12101 ft 308 kts 82°
2026-05-07 17:29 55.39664 11.77804 11691 ft 306 kts 83°
2026-05-07 17:30 55.39915 11.81511 11273 ft 305 kts 82°
2026-05-07 17:30 55.40167 11.85214 10827 ft 304 kts 82°
2026-05-07 17:30 55.40418 11.88902 10385 ft 304 kts 83°
2026-05-07 17:30 55.40669 11.92585 9938 ft 303 kts 83°
2026-05-07 17:31 55.40916 11.96260 9448 ft 303 kts 83°
2026-05-07 17:31 55.41160 11.99911 8955 ft 294 kts 83°
2026-05-07 17:31 55.41388 12.03348 8488 ft 282 kts 82°
2026-05-07 17:31 55.41607 12.06674 8044 ft 274 kts 82°
2026-05-07 17:32 55.41826 12.09999 7593 ft 271 kts 82°
2026-05-07 17:32 55.42045 12.13303 7207 ft 271 kts 82°
2026-05-07 17:32 55.42262 12.16599 6840 ft 272 kts 82°
2026-05-07 17:32 55.42475 12.19887 6459 ft 269 kts 82°
2026-05-07 17:33 55.42685 12.23158 6068 ft 268 kts 82°
2026-05-07 17:33 55.42891 12.26375 5667 ft 258 kts 82°
2026-05-07 17:33 55.43086 12.29410 5287 ft 249 kts 82°
2026-05-07 17:33 55.43280 12.32422 4902 ft 246 kts 81°
2026-05-07 17:34 55.43657 12.35249 4439 ft 237 kts 65°
2026-05-07 17:34 55.44517 12.37671 3951 ft 229 kts 46°
2026-05-07 17:34 55.45653 12.39514 3628 ft 218 kts 39°
2026-05-07 17:34 55.46775 12.41229 3333 ft 207 kts 39°
2026-05-07 17:35 55.47846 12.42867 3072 ft 201 kts 39°
2026-05-07 17:35 55.48885 12.44460 2804 ft 196 kts 39°
2026-05-07 17:35 55.49900 12.46015 2513 ft 191 kts 39°
2026-05-07 17:35 55.50884 12.47524 2249 ft 181 kts 39°
2026-05-07 17:36 55.51799 12.48931 2013 ft 167 kts 39°
2026-05-07 17:36 55.52621 12.50194 1808 ft 146 kts 39°
2026-05-07 17:36 55.53349 12.51313 1614 ft 137 kts 39°
2026-05-07 17:36 55.54057 12.52401 1426 ft 134 kts 39°
2026-05-07 17:37 55.54758 12.53478 1243 ft 133 kts 40°
2026-05-07 17:37 55.55454 12.54552 1060 ft 133 kts 40°
2026-05-07 17:37 55.56153 12.55626 864 ft 133 kts 39°
2026-05-07 17:37 55.56855 12.56708 678 ft 135 kts 40°
2026-05-07 17:38 55.57567 12.57804 493 ft 136 kts 41°
2026-05-07 17:38 55.58286 12.58910 306 ft 137 kts 41°
2026-05-07 17:38 55.58998 12.60008 115 ft 138 kts 43°
2026-05-07 17:38 55.59711 12.61113 19 ft 126 kts 42°
2026-05-07 17:39 55.60251 12.61947 18 ft 80 kts 41°
2026-05-07 17:39 55.60625 12.62527 20 ft 68 kts 41°
2026-05-07 17:39 55.60896 12.62838 19 ft 39 kts 16°
2026-05-07 17:39 55.61039 12.62890 17 ft 0 kts 11°
2026-05-07 17:41 55.61040 12.62890 17 ft 1 kts 11°
2026-05-07 17:41 55.61071 12.62902 17 ft 9 kts 12°
2026-05-07 17:41 55.61138 12.62951 19 ft 12 kts 32°
2026-05-07 17:42 55.61213 12.63057 17 ft 16 kts 41°
2026-05-07 17:42 55.61303 12.63196 18 ft 19 kts 41°
2026-05-07 17:42 55.61411 12.63362 17 ft 22 kts 41°
2026-05-07 17:42 55.61526 12.63542 19 ft 23 kts 41°
2026-05-07 17:43 55.61644 12.63723 17 ft 23 kts 41°
2026-05-07 17:43 55.61767 12.63913 18 ft 24 kts 41°
2026-05-07 17:43 55.61899 12.64098 17 ft 25 kts 23°
2026-05-07 17:43 55.62058 12.64228 17 ft 25 kts 25°
2026-05-07 17:44 55.62201 12.64349 15 ft 22 kts 26°
2026-05-07 17:44 55.62334 12.64424 17 ft 18 kts 14°
2026-05-07 17:44 55.62428 12.64469 17 ft 10 kts 15°
2026-05-07 17:44 55.62494 12.64482 17 ft 8 kts 359°
2026-05-07 17:45 55.62546 12.64504 17 ft 6 kts 16°
2026-05-07 17:45 55.62564 12.64513 17 ft 0 kts 16°